DLH4XA LYTV-EDDF

Flight info

Callsign DLH4XA
Flight time N/A
Altitude 38000
Route NIK DCT GACMO DCT EDALA DCT KOMAR DCT PODET DCT SETAL DCT SIMBA DCT AKINI T161 DEBHI DEBHI1A
Aircraft A319/M-SDE3FGHIRWY/LB1

Departure

Time N/A
Airport Tivat Airport (LYTV)

Arrival

Time 2026-05-05 20:04
Airport Frankfurt Main Airport (EDDF)
Time Latitude Longitude Altitude Speed Heading
2026-05-05 18:37 43.78149 17.93393 38089 ft 386 kts 321°
2026-05-05 18:38 43.82572 17.89023 38087 ft 398 kts 321°
2026-05-05 18:38 43.87143 17.84497 38089 ft 410 kts 321°
2026-05-05 18:39 43.91780 17.79889 38084 ft 413 kts 321°
2026-05-05 18:39 43.96475 17.75221 38083 ft 414 kts 321°
2026-05-05 18:40 44.01147 17.70559 38080 ft 414 kts 321°
2026-05-05 18:40 44.05831 17.65885 38078 ft 414 kts 321°
2026-05-05 18:41 44.10524 17.61183 38076 ft 416 kts 321°
2026-05-05 18:41 44.15192 17.56494 38074 ft 416 kts 321°
2026-05-05 18:42 44.19899 17.51764 38067 ft 416 kts 321°
2026-05-05 18:42 44.24620 17.47071 38063 ft 416 kts 322°
2026-05-05 18:43 44.29435 17.42618 38063 ft 417 kts 323°
2026-05-05 18:43 44.34315 17.38187 38063 ft 419 kts 323°
2026-05-05 18:44 44.39194 17.33692 38054 ft 419 kts 323°
2026-05-05 18:44 44.44064 17.29167 38053 ft 419 kts 322°
2026-05-05 18:45 44.48887 17.24668 38040 ft 418 kts 322°
2026-05-05 18:45 44.53735 17.20129 38038 ft 418 kts 322°
2026-05-05 18:46 44.58592 17.15575 38031 ft 421 kts 322°
2026-05-05 18:46 44.63443 17.11022 38024 ft 422 kts 322°
2026-05-05 18:47 44.68336 17.06429 38027 ft 422 kts 322°
2026-05-05 18:47 44.73190 17.01856 38010 ft 422 kts 322°
2026-05-05 18:48 44.78072 16.97254 38010 ft 422 kts 322°
2026-05-05 18:48 44.82951 16.92632 38007 ft 423 kts 322°
2026-05-05 18:49 44.87861 16.87968 38009 ft 425 kts 322°
2026-05-05 18:49 44.92748 16.83329 38004 ft 425 kts 322°
2026-05-05 18:50 44.97658 16.78668 38002 ft 425 kts 322°
2026-05-05 18:50 45.02582 16.74008 37999 ft 425 kts 322°
2026-05-05 18:51 45.07472 16.69381 38009 ft 425 kts 322°
2026-05-05 18:51 45.12392 16.64701 37999 ft 428 kts 322°
2026-05-05 18:52 45.17332 16.59985 37992 ft 427 kts 322°
2026-05-05 18:52 45.22266 16.55273 37996 ft 426 kts 322°
2026-05-05 18:53 45.27170 16.50582 38002 ft 427 kts 322°
2026-05-05 18:53 45.32096 16.45857 37996 ft 427 kts 322°
2026-05-05 18:54 45.37035 16.41111 37996 ft 430 kts 322°
2026-05-05 18:54 45.41954 16.36380 37992 ft 428 kts 323°
2026-05-05 18:55 45.46899 16.31615 37997 ft 428 kts 322°
2026-05-05 18:55 45.51838 16.26836 37991 ft 428 kts 322°
2026-05-05 18:56 45.56732 16.22092 37985 ft 428 kts 322°
2026-05-05 18:56 45.61678 16.17285 37983 ft 430 kts 322°
2026-05-05 18:57 45.66634 16.12452 37974 ft 431 kts 322°
2026-05-05 18:57 45.71601 16.07609 37973 ft 432 kts 322°
2026-05-05 18:58 45.76568 16.02761 37969 ft 432 kts 322°
2026-05-05 18:58 45.81499 15.97933 37976 ft 432 kts 322°
2026-05-05 18:59 45.86462 15.93052 37988 ft 431 kts 322°
2026-05-05 18:59 45.91422 15.88159 37976 ft 432 kts 322°
2026-05-05 19:00 45.96356 15.83296 37976 ft 432 kts 322°
2026-05-05 19:00 46.01309 15.78408 37976 ft 432 kts 322°
2026-05-05 19:01 46.06267 15.73495 37974 ft 432 kts 322°
2026-05-05 19:01 46.11178 15.68617 37972 ft 431 kts 322°
2026-05-05 19:02 46.16123 15.63692 37970 ft 431 kts 322°
2026-05-05 19:02 46.20722 15.58188 37968 ft 428 kts 315°
2026-05-05 19:03 46.25192 15.52566 37959 ft 428 kts 315°
2026-05-05 19:03 46.29690 15.46893 37958 ft 428 kts 315°
2026-05-05 19:04 46.34179 15.41201 37949 ft 429 kts 316°
2026-05-05 19:04 46.38645 15.35542 37950 ft 429 kts 315°
2026-05-05 19:05 46.43148 15.29818 37943 ft 429 kts 315°
2026-05-05 19:05 46.47617 15.24128 37942 ft 429 kts 315°
2026-05-05 19:06 46.52104 15.18393 37944 ft 429 kts 315°
2026-05-05 19:06 46.56590 15.12653 37942 ft 429 kts 315°
2026-05-05 19:07 46.61049 15.06935 37938 ft 430 kts 315°
2026-05-05 19:07 46.65546 15.01161 37938 ft 431 kts 315°
2026-05-05 19:08 46.70037 14.95371 37942 ft 431 kts 315°
2026-05-05 19:08 46.74531 14.89571 37928 ft 431 kts 315°
2026-05-05 19:09 46.78991 14.83809 37931 ft 431 kts 315°
2026-05-05 19:09 46.83490 14.77976 37932 ft 433 kts 315°
2026-05-05 19:10 46.87989 14.72119 37927 ft 433 kts 315°
2026-05-05 19:10 46.92466 14.66280 37928 ft 433 kts 315°
2026-05-05 19:11 46.96968 14.60403 37919 ft 433 kts 315°
2026-05-05 19:11 47.01466 14.54515 37923 ft 433 kts 315°
2026-05-05 19:12 47.05930 14.48655 37915 ft 434 kts 315°
2026-05-05 19:12 47.10442 14.42711 37929 ft 435 kts 315°
2026-05-05 19:13 47.14943 14.36773 37900 ft 433 kts 315°
2026-05-05 19:13 47.19423 14.30846 37898 ft 433 kts 314°
2026-05-05 19:14 47.23903 14.24915 37899 ft 434 kts 315°
2026-05-05 19:14 47.28523 14.19190 37886 ft 436 kts 317°
2026-05-05 19:15 47.33270 14.13550 37884 ft 439 kts 318°
2026-05-05 19:15 47.37975 14.07904 37871 ft 437 kts 317°
2026-05-05 19:16 47.42653 14.02180 37873 ft 436 kts 316°
2026-05-05 19:16 47.47315 13.96428 37858 ft 436 kts 316°
2026-05-05 19:17 47.51973 13.90682 37851 ft 437 kts 316°
2026-05-05 19:17 47.56655 13.84906 37845 ft 439 kts 316°
2026-05-05 19:18 47.60560 13.80087 37844 ft 439 kts 316°
2026-05-05 19:18 47.65261 13.74271 37841 ft 439 kts 316°
2026-05-05 19:19 47.69958 13.68446 37830 ft 439 kts 316°
2026-05-05 19:19 47.74659 13.62604 37826 ft 439 kts 316°
2026-05-05 19:20 47.79331 13.56775 37830 ft 441 kts 316°
2026-05-05 19:20 47.84019 13.50911 37827 ft 442 kts 316°
2026-05-05 19:21 47.88720 13.45021 37823 ft 443 kts 316°
2026-05-05 19:21 47.93434 13.39094 37825 ft 442 kts 316°
2026-05-05 19:22 47.98138 13.33177 37824 ft 442 kts 316°
2026-05-05 19:22 48.02812 13.27276 37842 ft 443 kts 316°
2026-05-05 19:23 48.07527 13.21303 37822 ft 444 kts 316°
2026-05-05 19:23 48.12252 13.15313 37822 ft 444 kts 315°
2026-05-05 19:24 48.16942 13.09339 37821 ft 444 kts 315°
2026-05-05 19:24 48.21651 13.03324 37821 ft 444 kts 315°
2026-05-05 19:25 48.25905 12.96704 37821 ft 440 kts 307°
2026-05-05 19:25 48.29960 12.89838 37820 ft 441 kts 307°
2026-05-05 19:26 48.34033 12.82941 37828 ft 441 kts 307°
2026-05-05 19:26 48.38098 12.76023 37817 ft 441 kts 307°
2026-05-05 19:27 48.42164 12.69077 37815 ft 441 kts 307°
2026-05-05 19:27 48.46204 12.62166 37817 ft 441 kts 307°
2026-05-05 19:28 48.50258 12.55216 37819 ft 441 kts 307°
2026-05-05 19:28 48.54305 12.48250 37824 ft 441 kts 307°
2026-05-05 19:29 48.58329 12.41318 37818 ft 441 kts 307°
2026-05-05 19:29 48.62388 12.34317 37352 ft 440 kts 307°
2026-05-05 19:30 48.64370 12.30888 36977 ft 436 kts 306°
2026-05-05 19:30 48.66355 12.27442 36606 ft 433 kts 306°
2026-05-05 19:30 48.68333 12.24001 36276 ft 432 kts 306°
2026-05-05 19:30 48.70306 12.20552 35921 ft 430 kts 304°
2026-05-05 19:31 48.71947 12.16860 35799 ft 421 kts 295°
2026-05-05 19:31 48.73437 12.13025 35826 ft 422 kts 295°
2026-05-05 19:31 48.76408 12.05379 35826 ft 423 kts 295°
2026-05-05 19:32 48.79423 11.97699 35824 ft 423 kts 295°
2026-05-05 19:32 48.82400 11.89982 35822 ft 423 kts 295°
2026-05-05 19:33 48.85342 11.82275 35818 ft 424 kts 295°
2026-05-05 19:33 48.88335 11.74497 35818 ft 425 kts 295°
2026-05-05 19:34 48.89826 11.70608 35623 ft 427 kts 295°
2026-05-05 19:34 48.91313 11.66725 35246 ft 423 kts 295°
2026-05-05 19:34 48.92789 11.62868 34875 ft 419 kts 294°
2026-05-05 19:35 48.95675 11.55286 34151 ft 414 kts 294°
2026-05-05 19:35 48.97110 11.51496 33793 ft 412 kts 294°
2026-05-05 19:35 48.98538 11.47717 33426 ft 410 kts 295°
2026-05-05 19:35 48.99960 11.43947 33028 ft 410 kts 295°
2026-05-05 19:36 49.01379 11.40178 32627 ft 409 kts 295°
2026-05-05 19:36 49.02781 11.36458 32239 ft 408 kts 295°
2026-05-05 19:36 49.04202 11.32691 31846 ft 407 kts 295°
2026-05-05 19:36 49.05618 11.28940 31462 ft 405 kts 295°
2026-05-05 19:37 49.07002 11.25262 31086 ft 404 kts 295°
2026-05-05 19:37 49.08401 11.21529 30705 ft 403 kts 295°
2026-05-05 19:37 49.09790 11.17819 30347 ft 402 kts 295°
2026-05-05 19:37 49.11178 11.14106 29982 ft 401 kts 295°
2026-05-05 19:38 49.12562 11.10405 29570 ft 399 kts 295°
2026-05-05 19:38 49.13913 11.06780 29175 ft 396 kts 295°
2026-05-05 19:38 49.15277 11.03117 28759 ft 393 kts 295°
2026-05-05 19:38 49.16631 10.99482 28366 ft 391 kts 296°
2026-05-05 19:39 49.17959 10.95917 27962 ft 387 kts 296°
2026-05-05 19:39 49.19289 10.92338 27549 ft 384 kts 296°
2026-05-05 19:39 49.20604 10.88785 27159 ft 382 kts 296°
2026-05-05 19:39 49.21944 10.85137 26776 ft 408 kts 296°
2026-05-05 19:40 49.23365 10.81252 26381 ft 426 kts 296°
2026-05-05 19:40 49.24814 10.77305 25997 ft 430 kts 296°
2026-05-05 19:40 49.26291 10.73297 25614 ft 431 kts 297°
2026-05-05 19:40 49.27770 10.69305 25262 ft 429 kts 297°
2026-05-05 19:41 49.29236 10.65344 24899 ft 426 kts 297°
2026-05-05 19:41 49.30692 10.61387 24528 ft 423 kts 297°
2026-05-05 19:41 49.32130 10.57457 24177 ft 420 kts 297°
2026-05-05 19:41 49.33536 10.53601 23900 ft 418 kts 297°
2026-05-05 19:42 49.34954 10.49707 23844 ft 416 kts 297°
2026-05-05 19:42 49.36423 10.45867 23858 ft 418 kts 302°
2026-05-05 19:42 49.38104 10.42183 23573 ft 418 kts 303°
2026-05-05 19:42 49.39754 10.38581 23135 ft 415 kts 303°
2026-05-05 19:43 49.41412 10.34960 22667 ft 411 kts 303°
2026-05-05 19:43 49.43049 10.31377 22216 ft 408 kts 303°
2026-05-05 19:43 49.44672 10.27814 21753 ft 404 kts 303°
2026-05-05 19:43 49.46279 10.24281 21299 ft 401 kts 302°
2026-05-05 19:44 49.47879 10.20763 20864 ft 398 kts 302°
2026-05-05 19:44 49.49458 10.17285 20432 ft 395 kts 302°
2026-05-05 19:44 49.51003 10.13873 20012 ft 392 kts 302°
2026-05-05 19:44 49.52556 10.10432 19592 ft 389 kts 302°
2026-05-05 19:45 49.54098 10.07012 19182 ft 387 kts 302°
2026-05-05 19:45 49.55631 10.03608 18774 ft 385 kts 302°
2026-05-05 19:45 49.57156 10.00221 18376 ft 382 kts 302°
2026-05-05 19:45 49.58648 9.96903 17963 ft 379 kts 302°
2026-05-05 19:46 49.60142 9.93573 17500 ft 376 kts 302°
2026-05-05 19:46 49.61627 9.90269 17058 ft 373 kts 302°
2026-05-05 19:46 49.63098 9.86998 16616 ft 370 kts 302°
2026-05-05 19:46 49.64556 9.83737 16173 ft 367 kts 302°
2026-05-05 19:47 49.66004 9.80494 15745 ft 364 kts 302°
2026-05-05 19:47 49.67436 9.77289 15319 ft 360 kts 302°
2026-05-05 19:47 49.68840 9.74144 14903 ft 357 kts 302°
2026-05-05 19:47 49.70250 9.70998 14489 ft 354 kts 302°
2026-05-05 19:48 49.71650 9.67882 14078 ft 351 kts 302°
2026-05-05 19:48 49.73039 9.64788 13678 ft 348 kts 302°
2026-05-05 19:48 49.74411 9.61728 13219 ft 345 kts 302°
2026-05-05 19:48 49.75776 9.58684 12771 ft 343 kts 302°
2026-05-05 19:49 49.77313 9.55933 12333 ft 344 kts 318°
2026-05-05 19:49 49.78693 9.54599 12038 ft 347 kts 331°
2026-05-05 19:49 49.81627 9.52600 11445 ft 346 kts 334°
2026-05-05 19:49 49.83836 9.51145 10995 ft 342 kts 334°
2026-05-05 19:50 49.86013 9.49719 10506 ft 336 kts 334°
2026-05-05 19:50 49.88129 9.48338 10057 ft 329 kts 334°
2026-05-05 19:50 49.90223 9.46978 9616 ft 320 kts 334°
2026-05-05 19:50 49.92259 9.45660 9140 ft 313 kts 334°
2026-05-05 19:51 49.94233 9.44383 8843 ft 304 kts 334°
2026-05-05 19:51 49.96147 9.43150 8813 ft 288 kts 334°
2026-05-05 19:51 49.97960 9.41994 8818 ft 272 kts 334°
2026-05-05 19:51 49.99670 9.40913 8821 ft 258 kts 334°
2026-05-05 19:52 50.01323 9.39872 8821 ft 255 kts 334°
2026-05-05 19:52 50.02963 9.38844 8821 ft 254 kts 334°
2026-05-05 19:52 50.04581 9.37827 8834 ft 254 kts 334°
2026-05-05 19:52 50.06224 9.36789 8825 ft 254 kts 334°
2026-05-05 19:53 50.07868 9.35754 8822 ft 254 kts 334°
2026-05-05 19:53 50.09510 9.34716 8817 ft 254 kts 334°
2026-05-05 19:53 50.11149 9.33677 8818 ft 255 kts 334°
2026-05-05 19:53 50.12763 9.32567 8579 ft 257 kts 327°
2026-05-05 19:54 50.14032 9.30664 8089 ft 253 kts 297°
2026-05-05 19:54 50.14729 9.28137 7578 ft 255 kts 287°
2026-05-05 19:54 50.15319 9.25509 7086 ft 261 kts 286°
2026-05-05 19:54 50.15905 9.22825 6827 ft 256 kts 286°
2026-05-05 19:55 50.16365 9.20250 6709 ft 245 kts 278°
2026-05-05 19:55 50.16599 9.17656 6491 ft 238 kts 274°
2026-05-05 19:55 50.16785 9.15090 6223 ft 236 kts 274°
2026-05-05 19:55 50.16962 9.12570 6033 ft 231 kts 274°
2026-05-05 19:56 50.17133 9.10090 6008 ft 230 kts 274°
2026-05-05 19:56 50.17176 9.07640 6009 ft 228 kts 261°
2026-05-05 19:56 50.16808 9.05223 6006 ft 228 kts 251°
2026-05-05 19:56 50.16286 9.02921 6010 ft 228 kts 249°
2026-05-05 19:57 50.15737 9.00597 6010 ft 227 kts 249°
2026-05-05 19:57 50.15377 8.99062 6012 ft 228 kts 249°
2026-05-05 19:57 50.14654 8.95972 6016 ft 227 kts 249°
2026-05-05 19:57 50.14110 8.93653 6001 ft 228 kts 249°
2026-05-05 19:58 50.13564 8.91323 5760 ft 227 kts 249°
2026-05-05 19:58 50.13021 8.89012 5452 ft 226 kts 249°
2026-05-05 19:58 50.12487 8.86739 5140 ft 224 kts 249°
2026-05-05 19:58 50.11951 8.84461 4832 ft 223 kts 249°
2026-05-05 19:59 50.11419 8.82201 4509 ft 221 kts 249°
2026-05-05 19:59 50.10888 8.79950 4190 ft 219 kts 249°
2026-05-05 19:59 50.10368 8.77744 3873 ft 211 kts 249°
2026-05-05 19:59 50.09874 8.75654 3583 ft 203 kts 250°
2026-05-05 20:00 50.09392 8.73616 3298 ft 196 kts 249°
2026-05-05 20:00 50.08938 8.71697 3066 ft 186 kts 249°
2026-05-05 20:00 50.08498 8.69839 2773 ft 179 kts 249°
2026-05-05 20:00 50.08076 8.68060 2513 ft 171 kts 249°
2026-05-05 20:01 50.07673 8.66358 2272 ft 164 kts 249°
2026-05-05 20:01 50.07289 8.64744 2046 ft 158 kts 249°
2026-05-05 20:01 50.06927 8.63220 1832 ft 141 kts 249°
2026-05-05 20:01 50.06603 8.61854 1639 ft 129 kts 249°
2026-05-05 20:02 50.06397 8.60989 1511 ft 126 kts 249°
2026-05-05 20:02 50.06095 8.59721 1334 ft 125 kts 249°
2026-05-05 20:02 50.05790 8.58441 1142 ft 126 kts 249°
2026-05-05 20:02 50.05481 8.57145 962 ft 128 kts 249°
2026-05-05 20:03 50.05172 8.55851 777 ft 129 kts 249°
2026-05-05 20:03 50.04865 8.54556 580 ft 130 kts 248°
2026-05-05 20:03 50.04552 8.53235 394 ft 129 kts 248°
2026-05-05 20:03 50.04266 8.52068 336 ft 101 kts 249°
2026-05-05 20:04 50.04090 8.51333 330 ft 49 kts 250°
2026-05-05 20:04 50.04016 8.51085 327 ft 19 kts 234°
2026-05-05 20:04 50.03941 8.50962 325 ft 17 kts 223°
2026-05-05 20:04 50.03858 8.50854 328 ft 4 kts 218°
2026-05-05 20:05 50.03838 8.50836 328 ft 2 kts 205°
2026-05-05 20:05 50.03834 8.50834 328 ft 0 kts 198°
2026-05-05 20:05 50.03830 8.50833 328 ft 2 kts 192°
2026-05-05 20:06 50.03808 8.50840 329 ft 5 kts 159°
2026-05-05 20:06 50.03782 8.50916 334 ft 13 kts 86°
2026-05-05 20:06 50.03816 8.51072 332 ft 16 kts 69°
2026-05-05 20:06 50.03857 8.51242 335 ft 17 kts 69°
2026-05-05 20:07 50.03901 8.51420 333 ft 18 kts 69°
2026-05-05 20:07 50.03924 8.51512 333 ft 18 kts 69°
2026-05-05 20:07 50.03968 8.51696 333 ft 19 kts 70°
2026-05-05 20:07 50.04012 8.51884 335 ft 18 kts 70°
2026-05-05 20:08 50.04055 8.52068 338 ft 18 kts 70°
2026-05-05 20:08 50.04095 8.52239 349 ft 17 kts 70°
2026-05-05 20:08 50.04135 8.52404 347 ft 16 kts 69°
2026-05-05 20:08 50.04172 8.52557 355 ft 15 kts 69°
2026-05-05 20:09 50.04208 8.52707 352 ft 15 kts 69°
2026-05-05 20:09 50.04246 8.52863 358 ft 16 kts 69°
2026-05-05 20:09 50.04286 8.53025 360 ft 16 kts 69°
2026-05-05 20:09 50.04325 8.53184 360 ft 14 kts 69°
2026-05-05 20:10 50.04356 8.53311 372 ft 11 kts 69°
2026-05-05 20:10 50.04382 8.53428 372 ft 12 kts 72°
2026-05-05 20:10 50.04397 8.53558 375 ft 14 kts 84°
2026-05-05 20:10 50.04407 8.53715 375 ft 15 kts 84°
2026-05-05 20:11 50.04418 8.53883 375 ft 16 kts 84°
2026-05-05 20:11 50.04431 8.54055 375 ft 16 kts 83°
2026-05-05 20:11 50.04443 8.54229 375 ft 17 kts 83°
2026-05-05 20:11 50.04454 8.54406 372 ft 16 kts 89°
2026-05-05 20:12 50.04429 8.54590 369 ft 18 kts 114°
2026-05-05 20:12 50.04340 8.54746 365 ft 22 kts 148°
2026-05-05 20:12 50.04199 8.54838 355 ft 21 kts 160°
2026-05-05 20:12 50.04077 8.54906 351 ft 10 kts 160°
2026-05-05 20:13 50.04019 8.54958 356 ft 9 kts 120°
2026-05-05 20:13 50.04024 8.55046 353 ft 9 kts 69°
2026-05-05 20:13 50.04047 8.55140 358 ft 10 kts 69°
2026-05-05 20:13 50.04073 8.55243 360 ft 11 kts 68°
2026-05-05 20:14 50.04106 8.55372 357 ft 14 kts 68°
2026-05-05 20:14 50.04144 8.55526 358 ft 16 kts 69°
2026-05-05 20:14 50.04180 8.55687 358 ft 16 kts 70°
2026-05-05 20:14 50.04218 8.55850 356 ft 16 kts 70°
2026-05-05 20:15 50.04255 8.56005 359 ft 10 kts 70°
2026-05-05 20:15 50.04303 8.56072 360 ft 10 kts
2026-05-05 20:15 50.04366 8.56042 359 ft 10 kts 340°
2026-05-05 20:15 50.04428 8.56048 361 ft 10 kts 36°
2026-05-05 20:16 50.04461 8.56149 361 ft 11 kts 70°
2026-05-05 20:16 50.04488 8.56265 359 ft 12 kts 70°
2026-05-05 20:16 50.04518 8.56389 358 ft 7 kts 66°
2026-05-05 20:16 50.04556 8.56444 356 ft 8 kts 26°
2026-05-05 20:17 50.04602 8.56475 358 ft 6 kts 23°
2026-05-05 20:17 50.04641 8.56501 357 ft 7 kts 24°
2026-05-05 20:17 50.04669 8.56552 358 ft 7 kts 85°
2026-05-05 20:17 50.04651 8.56617 359 ft 7 kts 115°
2026-05-05 20:18 50.04642 8.56645 361 ft 2 kts 114°
2026-05-05 20:18 50.04637 8.56665 359 ft 0 kts 114°